[[{"header":{"parameterUnit":"m.s-1","parameterCategory":1,"la1":30.2991,"la2":30.254,"lo1":-89.0895,"lo2":-89.0444,"dy":0.0017,"dx":0.0017,"nx":28,"ny":28,"refTime":"2024-05-17T21:00:00:Z","depth":0,"parameterNumber":2,"parameterNumberName":"U-component_of_WINDS"},"data":[0,0,0,0,0,0,0,0,0,0,0,0,0,0,0,0,0,0,0,0,0,0,0,0,0,0,0,0,0,0,0,0,0,0,0,0,0,0,0,0,0,0,0,0,0,0,0,0,0,0,0,0,0,0,0,0,0,0,-0.3994,-0.3993,0,-0.3866,-0.3865,-0.3863,-0.3765,-0.3764,-0.3763,-0.3762,-0.3629,-0.3627,-0.3624,0,0,0,0,0,0,0,0,0,0,0,0,0,-0.4153,-0.4151,-0.3994,-0.3993,-0.3991,-0.3866,-0.3864,-0.3863,-0.3765,-0.3764,-0.3763,-0.3762,-0.363,-0.3627,-0.3624,0,0,0,0,0,0,0,0,0,0,0,0,0,-0.406,-0.415,-0.3995,-0.3928,-0.392,-0.3867,-0.3864,-0.3862,-0.3765,-0.3764,-0.3763,-0.3761,-0.3631,-0.3627,-0.3623,-0.3626,0,0,-0.3611,-0.3609,0,0,0,0,0,0,0,0,-0.4066,-0.4055,-0.3939,-0.3932,-0.3924,-0.383,-0.3871,-0.3783,-0.3766,-0.3824,-0.3762,-0.3761,-0.3697,-0.3688,-0.3666,-0.3619,-0.3614,-0.3611,-0.3608,-0.3606,-0.3605,0,0,0,0,0,0,0,-0.4072,-0.406,-0.3943,-0.3937,-0.3928,-0.3903,-0.3889,-0.3854,-0.377,-0.3819,-0.3812,-0.3798,-0.3693,-0.3671,-0.3663,-0.3612,-0.3611,-0.3607,-0.3605,-0.3603,-0.3559,-0.356,0,0,0,0,0,0,-0.409,-0.4066,-0.3948,-0.394,-0.3993,-0.3901,-0.3885,-0.3862,-0.377,-0.3755,-0.3799,-0.3794,-0.3678,-0.3667,-0.3658,-0.3654,-0.3607,-0.3603,-0.36,-0.3558,-0.3559,-0.356,0,0,0,0,0,0,-0.4093,-0.408,-0.3953,-0.4001,-0.3983,-0.39,-0.3875,-0.386,-0.3838,-0.3755,-0.3739,-0.3792,-0.3677,-0.3663,-0.3634,-0.3648,-0.3601,-0.3597,-0.3556,-0.3558,-0.356,-0.3646,0,0,0,0,0,0,-0.4098,-0.4082,-0.4082,-0.4001,-0.398,-0.3933,-0.3875,-0.3858,-0.3831,-0.3823,-0.3744,-0.373,-0.3675,-0.3641,-0.363,-0.3641,-0.3594,-0.3555,-0.3557,-0.3559,-0.3642,-0.3651,-0.3659,0,0,0,0,0,-0.4104,-0.4112,-0.4083,-0.4069,-0.3979,-0.3934,-0.3921,-0.3858,-0.3833,-0.3832,-0.3779,-0.3732,-0.3648,-0.3639,-0.3626,-0.3636,-0.3553,-0.3556,-0.3559,-0.3638,-0.3649,-0.3659,0,0,0,0,0,0,-0.4196,-0.41,-0.4067,-0.4049,-0.4,-0.3917,-0.3915,-0.3872,-0.3829,-0.3823,-0.3746,-0.3729,-0.3708,-0.3669,-0.366,-0.3633,-0.3595,-0.3595,-0.3659,-0.3669,-0.3677,-0.3687,-0.3591,0,0,0,0,0,-0.4214,-0.4186,-0.4103,-0.4095,-0.4072,-0.3998,-0.3975,-0.3931,-0.3877,-0.3856,-0.38,-0.375,-0.3711,-0.3688,-0.3648,-0.3636,-0.3617,-0.3636,-0.3645,-0.3652,-0.3653,-0.3643,-0.3651,-0.357,-0.357,-0.357,0,0,-0.4251,-0.4195,-0.4182,-0.4112,-0.4069,-0.404,-0.3981,-0.3953,-0.3931,-0.3851,-0.3821,-0.3778,-0.3716,-0.3696,-0.3684,-0.3662,-0.3671,-0.3656,-0.3662,-0.3659,-0.3647,-0.3655,-0.3661,-0.3572,-0.3571,-0.3571,0,0,-0.4304,-0.4259,-0.4247,-0.4206,-0.4142,-0.4092,-0.409,-0.4013,-0.3982,-0.395,-0.3889,-0.3861,-0.3797,-0.3755,-0.3726,-0.3763,-0.3718,-0.3752,-0.3796,-0.3787,-0.3793,-0.3798,-0.3811,-0.3817,-0.3753,-0.3754,-0.3754,0,-0.4359,-0.4314,-0.4246,-0.4222,-0.4193,-0.412,-0.4107,-0.4069,-0.3996,-0.3977,-0.3954,-0.3872,-0.3825,-0.3793,-0.3802,-0.378,-0.3774,-0.3761,-0.3798,-0.3802,-0.3806,-0.3818,-0.3823,-0.3758,-0.3758,-0.3757,-0.3757,0,-0.4383,-0.4353,-0.4351,-0.4282,-0.4252,-0.4234,-0.4163,-0.4141,-0.4099,-0.4052,-0.402,-0.3961,-0.3908,-0.3897,-0.3855,-0.3859,-0.3847,-0.3812,-0.3773,-0.382,-0.3829,-0.3833,-0.3765,-0.3763,-0.3762,-0.376,0,0,-0.4491,-0.4385,-0.4385,-0.4353,-0.4277,-0.4252,-0.423,-0.4178,-0.4161,-0.4112,-0.4091,-0.4038,-0.4005,-0.3972,-0.3925,-0.3917,-0.3949,-0.3882,-0.388,-0.3897,-0.3949,-0.3976,-0.3983,-0.3919,-0.392,-0.392,-0.3954,0,-0.4532,-0.4489,-0.4428,-0.4405,-0.4376,-0.4306,-0.4286,-0.4237,-0.4192,-0.416,-0.411,-0.4074,-0.4033,-0.4012,-0.4002,-0.3948,-0.3959,-0.3945,-0.3899,-0.3898,-0.3917,-0.3987,-0.4016,-0.4051,-0.3958,-0.3958,-0.3959,0,-0.4574,-0.453,-0.4505,-0.4431,-0.4416,-0.44,-0.4348,-0.4318,-0.4261,-0.4228,-0.4191,-0.414,-0.4112,-0.4077,-0.4037,-0.4028,-0.4006,-0.3976,-0.3976,-0.3969,-0.3931,-0.3983,-0.406,-0.4066,-0.3964,-0.3963,-0.3963,0,-0.4655,-0.459,-0.4566,-0.454,-0.4453,-0.4443,-0.4406,-0.4347,-0.432,-0.4274,-0.4256,-0.4207,-0.418,-0.4143,-0.408,-0.406,-0.4047,-0.4006,-0.4019,-0.4021,-0.402,-0.4021,-0.4095,-0.4005,-0.4005,-0.4005,-0.4005,0,-0.4708,-0.4695,-0.4601,-0.4587,-0.457,-0.4499,-0.4484,-0.444,-0.4389,-0.4364,-0.43,-0.4277,-0.4195,-0.4163,-0.4113,-0.4088,-0.4076,-0.4049,-0.4036,-0.4054,-0.4058,-0.4039,-0.4035,-0.4006,-0.4006,-0.4006,-0.4006,0,-0.4796,-0.4732,-0.4702,-0.4622,-0.4601,-0.4593,-0.4524,-0.4506,-0.4458,-0.4427,-0.4416,-0.4339,-0.4298,-0.4231,-0.417,-0.4136,-0.412,-0.4098,-0.414,-0.4132,-0.4148,-0.4148,-0.4213,-0.4218,-0.4126,-0.4127,-0.4128,0,-0.4833,-0.4822,-0.4741,-0.472,-0.4686,-0.4653,-0.4625,-0.4554,-0.4528,-0.4461,-0.4452,-0.4406,-0.4365,-0.4303,-0.4241,-0.4194,-0.417,-0.4196,-0.4163,-0.4182,-0.417,-0.4172,-0.417,-0.4204,-0.4206,-0.4207,-0.4208,0,-0.4907,-0.4876,-0.4839,-0.4791,-0.476,-0.4718,-0.4673,-0.4659,-0.4578,-0.4552,-0.4509,-0.4478,-0.4416,-0.4371,-0.4315,-0.4275,-0.4228,-0.4219,-0.4219,-0.4238,-0.4263,-0.425,-0.4161,-0.4218,-0.4217,-0.4216,-0.4215,-0.4215,-0.4971,-0.4957,-0.4898,-0.4859,-0.4818,-0.4777,-0.4757,-0.4706,-0.467,-0.4614,-0.4574,-0.4534,-0.4476,-0.4396,-0.4359,-0.4326,-0.4305,-0.4306,-0.4306,-0.4308,-0.4315,-0.4269,-0.4316,-0.4315,-0.4315,-0.4315,-0.4315,0,-0.5041,-0.5,-0.4964,-0.4904,-0.4872,-0.4831,-0.4779,-0.4755,-0.4721,-0.4671,-0.4633,-0.4584,-0.4539,-0.4474,-0.4425,-0.4411,-0.4388,-0.44,-0.4401,-0.4392,-0.4336,-0.4341,-0.442,-0.442,-0.442,-0.442,-0.442,-0.442,-0.5074,-0.5049,-0.5011,-0.4965,-0.4923,-0.4884,-0.4858,-0.482,-0.478,-0.4728,-0.4691,-0.4649,-0.4593,-0.4538,-0.4496,-0.4477,-0.4462,-0.4482,-0.4457,-0.4406,-0.4396,-0.4387,-0.4391,-0.4479,-0.4479,-0.4515,-0.4515,-0.4516]},{"header":{"parameterUnit":"m.s-1","parameterCategory":1,"la1":30.2991,"la2":30.254,"lo1":-89.0895,"lo2":-89.0444,"dy":0.0017,"dx":0.0017,"nx":28,"ny":28,"refTime":"2024-05-17T21:00:00:Z","depth":0,"parameterNumber":3,"parameterNumberName":"V-component_of_WINDS"},"data":[0,0,0,0,0,0,0,0,0,0,0,0,0,0,0,0,0,0,0,0,0,0,0,0,0,0,0,0,0,0,0,0,0,0,0,0,0,0,0,0,0,0,0,0,0,0,0,0,0,0,0,0,0,0,0,0,0,0,-1.7624,-1.7624,0,-1.7656,-1.7657,-1.7657,-1.7672,-1.7672,-1.7672,-1.7672,-1.7702,-1.7703,-1.7704,0,0,0,0,0,0,0,0,0,0,0,0,0,-1.7572,-1.7573,-1.7624,-1.7624,-1.7625,-1.7656,-1.7657,-1.7657,-1.7672,-1.7672,-1.7672,-1.7672,-1.7702,-1.7703,-1.7704,0,0,0,0,0,0,0,0,0,0,0,0,0,-1.7598,-1.7573,-1.7624,-1.7636,-1.7637,-1.7656,-1.7657,-1.7657,-1.7672,-1.7672,-1.7672,-1.7672,-1.7702,-1.7703,-1.7704,-1.7713,0,0,-1.7708,-1.7709,0,0,0,0,0,0,0,0,-1.7597,-1.76,-1.7634,-1.7635,-1.7637,-1.766,-1.765,-1.7676,-1.7672,-1.7659,-1.7672,-1.7672,-1.7688,-1.7691,-1.7697,-1.7714,-1.7716,-1.7708,-1.7709,-1.771,-1.771,0,0,0,0,0,0,0,-1.7595,-1.7599,-1.7637,-1.7634,-1.7636,-1.7639,-1.7643,-1.7655,-1.7673,-1.766,-1.7661,-1.7665,-1.7689,-1.7695,-1.7698,-1.7716,-1.7708,-1.7709,-1.771,-1.7711,-1.7743,-1.7743,0,0,0,0,0,0,-1.7592,-1.7597,-1.7636,-1.7638,-1.7616,-1.764,-1.7644,-1.7653,-1.7673,-1.7676,-1.7665,-1.7665,-1.7693,-1.7696,-1.7699,-1.771,-1.771,-1.7711,-1.7712,-1.7743,-1.7743,-1.7743,0,0,0,0,0,0,-1.7591,-1.7595,-1.7634,-1.7618,-1.7623,-1.7641,-1.765,-1.7653,-1.766,-1.7677,-1.768,-1.7668,-1.7693,-1.7697,-1.771,-1.7712,-1.7711,-1.7713,-1.7742,-1.7743,-1.7743,-1.7734,0,0,0,0,0,0,-1.7589,-1.7594,-1.7598,-1.7618,-1.7624,-1.7645,-1.765,-1.7654,-1.7662,-1.7663,-1.7681,-1.7684,-1.7694,-1.7708,-1.7711,-1.7713,-1.7714,-1.7742,-1.7743,-1.7743,-1.7734,-1.7733,-1.7733,0,0,0,0,0,-1.7587,-1.7594,-1.7599,-1.7603,-1.763,-1.7645,-1.7649,-1.7661,-1.7662,-1.7666,-1.7677,-1.7683,-1.7711,-1.7709,-1.7712,-1.7715,-1.7742,-1.7742,-1.7743,-1.7734,-1.7733,-1.7733,0,0,0,0,0,0,-1.7573,-1.7597,-1.7602,-1.7616,-1.7629,-1.7648,-1.7653,-1.766,-1.7672,-1.7672,-1.7686,-1.769,-1.7701,-1.7709,-1.7707,-1.7725,-1.7727,-1.7728,-1.7719,-1.7719,-1.7718,-1.7716,-1.7715,0,0,0,0,0,-1.7572,-1.7584,-1.7603,-1.7613,-1.762,-1.7635,-1.7643,-1.7651,-1.7664,-1.767,-1.7682,-1.7694,-1.7705,-1.7712,-1.7724,-1.7735,-1.7739,-1.7739,-1.7738,-1.7738,-1.7739,-1.7745,-1.7745,-1.7743,-1.7743,-1.7743,0,0,-1.7569,-1.7583,-1.759,-1.7611,-1.7622,-1.7633,-1.764,-1.7651,-1.766,-1.7671,-1.7684,-1.7693,-1.7708,-1.772,-1.7725,-1.7727,-1.774,-1.7738,-1.7738,-1.7739,-1.7745,-1.7746,-1.7746,-1.7744,-1.7744,-1.7744,0,0,-1.757,-1.7582,-1.7592,-1.7603,-1.762,-1.763,-1.7632,-1.7651,-1.7658,-1.7671,-1.768,-1.769,-1.7709,-1.7719,-1.7727,-1.7731,-1.7737,-1.7735,-1.7733,-1.7739,-1.7739,-1.7739,-1.7741,-1.7741,-1.7735,-1.7735,-1.7735,0,-1.7564,-1.7582,-1.7596,-1.7607,-1.7616,-1.7628,-1.7638,-1.7647,-1.7667,-1.7672,-1.7674,-1.7699,-1.7709,-1.7724,-1.7725,-1.7731,-1.7733,-1.7733,-1.7738,-1.7739,-1.7739,-1.7741,-1.7741,-1.7735,-1.7735,-1.7735,-1.7735,0,-1.7574,-1.7587,-1.7592,-1.7612,-1.7621,-1.7632,-1.7646,-1.7654,-1.7661,-1.7671,-1.7685,-1.7698,-1.7712,-1.7716,-1.7723,-1.7732,-1.7732,-1.7736,-1.7738,-1.7738,-1.774,-1.7741,-1.7734,-1.7734,-1.7735,-1.7735,0,0,-1.7567,-1.7594,-1.7596,-1.7605,-1.7625,-1.7634,-1.7645,-1.766,-1.7666,-1.7679,-1.7688,-1.7705,-1.7708,-1.7717,-1.7725,-1.773,-1.7733,-1.7733,-1.7734,-1.7733,-1.7743,-1.7741,-1.7741,-1.7737,-1.7737,-1.7738,-1.7742,0,-1.7571,-1.7591,-1.7604,-1.7619,-1.7631,-1.7642,-1.7652,-1.7664,-1.7674,-1.7684,-1.7694,-1.7706,-1.771,-1.7715,-1.7721,-1.7732,-1.7736,-1.7731,-1.7745,-1.7746,-1.7742,-1.7742,-1.7739,-1.7743,-1.7743,-1.7743,-1.7743,0,-1.7577,-1.7591,-1.7608,-1.7626,-1.7632,-1.764,-1.7655,-1.7665,-1.7679,-1.7685,-1.7695,-1.7704,-1.7715,-1.7716,-1.7732,-1.7728,-1.7735,-1.7741,-1.7741,-1.7743,-1.7744,-1.7744,-1.7745,-1.7745,-1.7745,-1.7744,-1.7744,0,-1.7571,-1.7593,-1.7606,-1.7613,-1.7635,-1.7641,-1.765,-1.7664,-1.7673,-1.7685,-1.7691,-1.7704,-1.7711,-1.7721,-1.7733,-1.7733,-1.7747,-1.7749,-1.7752,-1.7752,-1.7754,-1.7754,-1.7756,-1.7758,-1.7758,-1.7758,-1.7758,0,-1.7573,-1.7583,-1.7603,-1.7611,-1.7623,-1.7637,-1.7647,-1.7657,-1.767,-1.7679,-1.769,-1.7698,-1.7713,-1.7723,-1.7732,-1.7743,-1.7746,-1.7751,-1.7754,-1.7751,-1.775,-1.7755,-1.7755,-1.7758,-1.7758,-1.7758,-1.7758,0,-1.7568,-1.7582,-1.7597,-1.7616,-1.7622,-1.7629,-1.7645,-1.7653,-1.7663,-1.7675,-1.7679,-1.7695,-1.7707,-1.772,-1.7736,-1.7742,-1.7754,-1.7757,-1.7749,-1.775,-1.7753,-1.7752,-1.7758,-1.7759,-1.776,-1.776,-1.776,0,-1.7568,-1.7576,-1.7597,-1.7605,-1.7614,-1.7626,-1.7635,-1.7649,-1.7657,-1.7674,-1.768,-1.7694,-1.7705,-1.7725,-1.7737,-1.775,-1.7753,-1.7754,-1.7755,-1.7752,-1.7753,-1.7753,-1.7753,-1.7754,-1.7754,-1.7754,-1.7754,0,-1.7568,-1.7575,-1.7588,-1.7603,-1.7613,-1.7626,-1.7638,-1.7644,-1.766,-1.7669,-1.7682,-1.7692,-1.7709,-1.7722,-1.7736,-1.7745,-1.7752,-1.7753,-1.7755,-1.7752,-1.7747,-1.775,-1.7748,-1.7753,-1.7753,-1.7753,-1.7753,-1.7753,-1.7566,-1.7574,-1.759,-1.7603,-1.7615,-1.7626,-1.7635,-1.7646,-1.7658,-1.7674,-1.7681,-1.7695,-1.7709,-1.7729,-1.7737,-1.7748,-1.7749,-1.7751,-1.7752,-1.7752,-1.7751,-1.7745,-1.775,-1.775,-1.775,-1.775,-1.775,0,-1.7566,-1.7577,-1.759,-1.7608,-1.7619,-1.7625,-1.7639,-1.7648,-1.766,-1.7673,-1.7684,-1.77,-1.7712,-1.7726,-1.774,-1.7745,-1.7749,-1.7748,-1.7748,-1.775,-1.7749,-1.7747,-1.7745,-1.7745,-1.7745,-1.7745,-1.7745,-1.7745,-1.7568,-1.7581,-1.759,-1.7609,-1.762,-1.7634,-1.7641,-1.7652,-1.7662,-1.7679,-1.7691,-1.77,-1.7713,-1.7727,-1.7739,-1.7743,-1.7747,-1.7746,-1.775,-1.775,-1.775,-1.775,-1.7748,-1.7747,-1.7747,-1.775,-1.775,-1.775]}]]